www.pogodaiklimat.ru

Погода и климат >> Архив погоды >> Финляндия >> Муонио Аламуонио


ПОГОДА в Муонио Аламуонио

  • Прогноз погоды в Муонио Аламуонио
  • Монитор погоды в Муонио Аламуонио

АРХИВ ПОГОДЫ в Муонио Аламуонио

Время (UTC), дата Ветер
(напр.,м/с)
 
Видим.   Явления Облачность Т
(С)
Тd
(С)
f
(%)
Тe
(С)
Тes
(С)
Комфортность P
(гПа)
Po
(гПа)
Тmin
(С)
Tmax
(С)
R
(мм)
R24
(мм)
S
(см)
10 16.07 В 2 40 км 5/3 1000 м
[]
+13.9 +5.7 58 +14 +20 1014.6 986.3
11 16.07 С 4 27 км слаб. дождь 10/10 1000 м
[]
+12.0 +6.1 67 +10 +10 1015.1 986.6
12 16.07 В 2 40 км в посл. час дождь 10/10
[]
+12.7 +4.9 59 +12 +12 1015.0 986.5
14 16.07 В 3 45 км 5/1 1000 м
[]
+14.0 +5.3 56 +13 +17 1014.6 986.3
15 16.07 В 2 35 км 9/4 1000 м
[]
+13.7 +4.8 55 +13 +15 1014.8 986.5
16 16.07 СВ 3 50 км 9/1 1000 м
[]
+14.9 +3.4 46 +14 +16 1014.5 986.3
17 16.07 В 2 40 км 4/0
[]
+13.7 +4.3 53 +13 +15 1014.8 986.5
18 16.07 В 2 45 км 9/4 2000 м
[]
+12.2 +4.1 58 +11 +12 1015.1 986.7 +11.1 +14.9
19 16.07 СВ 1 50 км 9/9 2000 м
[]
+11.6 +4.5 62 +12 +12 1015.2 986.7
20 16.07 СВ 1 45 км ясно +8.7 +4.8 76 +8 +8 1015.6 986.7
21 16.07 СВ 2 50 км 5/0
[]
+8.3 +3.9 74 +7 +7 1015.9 987.0
22 16.07 СВ 2 50 км 6/6 1500 м
[]
+6.8 +4.3 84 +5 +5 1016.4 987.3
23 16.07 СВ 1 50 км 3/3 1500 м
[]
+5.8 +4.4 91 +5 +5 1016.4 987.3
00 17.07 С 2 28 км 9/0
[]
+5.4 +3.9 90 +3 +3 1016.8 987.5
01 17.07 С 1 19 км 9/0
[]
+4.5 +3.7 95 +3 +3 1016.7 987.4
02 17.07 штиль 0 9000 м дымка 8/8 1500 м
[]
+4.1 +3.6 97 +3 +3 1016.4 987.1
03 17.07 С 1 12 км 4/4 1500 м
[]
+4.3 +3.6 95 +3 +3 1016.4 987.1
04 17.07 СЗ 1 30 км ясно +7.8 +4.7 81 +7 +9 1015.9 987.0
05 17.07 СЗ 2 40 км 6/6 1500 м
[]
+8.1 +4.9 80 +6 +8 1015.7 986.8
06 17.07 С 3 45 км 10/10 300 м
[]
+9.5 +5.2 75 +7 +7 1015.1 986.3 +3.7 +12.2
07 17.07 С 2 45 км 10/10 300 м
[]
+10.3 +5.4 72 +9 +9 1014.9 986.2
08 17.07 С 2 45 км 9/9 600 м
[]
+11.3 +5.3 67 +10 +11 1014.7 986.1
09 17.07 СВ 2 45 км 9/9 600 м
[]
+11.6 +4.8 63 +11 +12 1014.4 985.9
10 17.07 В 3 45 км 8/5 600 м
[]
+12.9 +5.5 61 +12 +15 1014.0 985.7
11 17.07 В 1 45 км 4/4 1500 м
[]
+14.5 +5.2 54 +15 +22 1013.6 985.4
12 17.07 СВ 2 40 км 10/10 1000 м
[]
+13.7 +4.3 53 +13 +13 1013.3 985.0
13 17.07 Ю 2 30 км 8/8 1500 м
[]
+15.2 +3.9 47 +15 +17 1012.9 984.8
14 17.07 СЗ 1 40 км 4/4 1000 м
[]
+15.8 +4.3 46 +17 +21 1012.5 984.5
15 17.07 З 2 50 км 8/8 1500 м
[]
+15.3 +3.7 46 +15 +16 1012.4 984.3
16 17.07 СВ 1 50 км 6/6 1500 м
[]
+14.5 +5.8 56 +15 +16 1012.5 984.3
17 17.07 В 2 40 км слаб. дождь 10/10 1500 м
[]
+13.1 +7.2 67 +12 +12 1012.9 984.5
18 17.07 ЮВ 2 50 км в посл. час дождь 9/8 1500 м
[]
+13.5 +7.6 67 +13 +13 1012.8 984.6 +9.5 +16.5
19 17.07 ЮВ 1 50 км 3/3 1500 м
[]
+12.5 +7.7 73 +13 +13 1013.1 984.7
20 17.07 ЮВ 2 50 км 10/10 2000 м
[]
+11.7 +7.2 74 +11 +11 1013.3 984.8
21 17.07 Ю 1 50 км слаб. ливневой дождь 5/5 1500 м
[]
+9.8 +7.3 84 +9 +9 1013.8 985.1
22 17.07 ЮВ 2 50 км 8/8 1500 м
[]
+9.4 +5.8 78 +8 +8 1014.2 985.5
23 17.07 Ю 1 50 км 10/10 1000 м
[]
+9.5 +6.5 82 +9 +9 1014.5 985.8
00 18.07 ЮВ 1 50 км ясно +6.9 +5.7 92 +6 +6 1014.9 985.9
01 18.07 ЮВ 1 45 км ясно +5.8 +5.1 95 +4 +5 1015.2 986.1
02 18.07 ЮВ 1 45 км 5/5 2000 м
[]
+5.8 +5.0 95 +4 +5 1015.5 986.4
03 18.07 штиль 0 40 км ясно +9.0 +6.6 85 +8 +9 1015.3 986.5
04 18.07 Ю 2 50 км 9/1 1000 м
[]
+12.3 +6.8 69 +11 +12 1015.2 986.7
05 18.07 Ю 3 45 км 10/1 1500 м
[]
+12.7 +7.1 69 +11 +13 1015.4 986.9
06 18.07 Ю 3 30 км 9/9 2000 м
[]
+14.5 +7.5 63 +14 +14 1015.2 987.0 +5.6 +14.9
07 18.07 Ю 3 50 км 1/1 2000 м
[]
+14.5 +6.2 57 +14 +19 1015.3 987.0
08 18.07 Ю 3 45 км 9/3 1000 м
[]
+15.2 +6.6 56 +15 +17 1015.2 987.0
09 18.07 ЮЗ 2 45 км 9/9 1500 м
[]
+15.4 +6.6 56 +15 +16 1015.3 987.1
10 18.07 ЮЗ 1 50 км 10/8 1000 м
[]
+15.9 +5.9 51 +17 +18 1015.3 987.2
11 18.07 Ю 1 45 км 10/10 1500 м
[]
+16.4 +5.1 47 +17 +17 1015.3 987.3
12 18.07 З 1 45 км 10/10 2000 м
[]
+16.8 +5.0 46 +18 +18 1015.2 987.2
13 18.07 40 км 10/10 2000 м
[]
+17.1 +4.8 44 1015.1 987.1
14 18.07 В 2 45 км 10/10 2000 м
[]
+17.4 +4.1 41 +18 +18 1015.1 987.1
15 18.07 В 2 45 км 10/10 2000 м
[]
+17.6 +5.2 44 +18 +18 1015.0 987.0
16 18.07 В 2 40 км 10/10 2000 м
[]
+17.6 +6.0 46 +18 +18 1015.0 987.0
17 18.07 В 2 45 км 10/10 2000 м
[]
+17.3 +6.0 47 +18 +18 1014.9 986.9
18 18.07 СВ 1 45 км 8/8
[]
+15.4 +8.7 64 +16 +16 1015.1 987.0 +14.2 +18.1
19 18.07 В 2 45 км 1/1 1500 м
[]
+14.2 +7.5 64 +14 +14 1015.4 987.1
20 18.07 В 3 50 км 1/1
[]
+14.3 +9.1 71 +13 +13 1015.6 987.3
21 18.07 В 3 50 км 9/5 2000 м
[]
+13.0 +9.4 79 +12 +12 1016.0 987.6
22 18.07 В 3 45 км 9/9 2000 м
[]
+12.6 +9.5 81 +11 +11 1016.2 987.7
23 18.07 В 1 50 км 10/10 2000 м
[]
+11.1 +9.3 89 +11 +11 1016.5 987.9
00 19.07 В 1 45 км 9/9
[]
+11.1 +10.0 93 +11 +11 1016.5 987.8
01 19.07 В 2 45 км 9/1 1000 м
[]
+11.1 +10.4 95 +10 +10 1016.4 987.8
02 19.07 СВ 1 45 км 10/10 600 м
[]
+11.3 +10.3 94 +11 +11 1016.3 987.7
03 19.07 СВ 1 40 км слаб. дождь 10/10 1000 м
[]
+11.3 +10.4 94 +11 +11 1016.1 987.5
04 19.07 СВ 1 45 км в посл. час дождь 10/10 1500 м
[]
+11.8 +10.5 92 +12 +12 1015.9 987.4
05 19.07 С 1 50 км 10/10 1500 м
[]
+12.4 +10.4 88 +12 +12 1015.7 987.3
06 19.07 ЮВ 1 35 км 8/8 300 м
[]
+14.3 +9.8 74 +15 +16 1015.3 987.0 +10.5 +15.9
07 19.07 СВ 2 40 км 9/9 600 м
[]
+15.3 +9.5 68 +15 +16 1015.1 986.9
08 19.07 ЮВ 2 40 км 9/9 600 м
[]
+14.9 +9.2 69 +15 +15 1014.9 986.6
09 19.07 В 2 45 км 10/10 1000 м
[]
+15.0 +9.4 69 +15 +15 1014.6 986.4
10 19.07 Ю 2 35 км 5/5 2000 м
[]
+16.6 +9.0 61 +17 +22 1014.4 986.3
11 19.07 СВ 2 40 км 10/10 600 м
[]
+16.3 +9.5 64 +16 +16 1014.3 986.3
12 19.07 СВ 3 35 км 9/9 2000 м
[]
+17.7 +9.3 58 +18 +19 1014.0 986.1
13 19.07 В 1 45 км 9/1 1000 м
[]
+17.8 +8.8 56 +19 +24 1013.7 985.9
14 19.07 ЮВ 2 30 км 9/9 2000 м
[]
+19.1 +8.7 51 +20 +21 1013.4 985.6
15 19.07 В 2 45 км 10/10 2000 м
[]
+18.3 +8.1 51 +19 +19 1013.2 985.4
16 19.07 В 3 35 км 1/1 2000 м
[]
+18.8 +7.8 49 +19 +22 1012.9 985.1
17 19.07 В 2 45 км ясно +18.9 +7.0 46 +20 +22 1012.9 985.1
18 19.07 В 2 50 км ясно +18.4 +7.5 49 +19 +20 1012.9 985.1 +14.1 +19.5
19 19.07 В 3 50 км ясно +17.3 +9.6 61 +17 +17 1013.1 985.2
20 19.07 В 2 50 км ясно +14.9 +9.8 72 +15 +15 1013.5 985.3
21 19.07 В 2 50 км ясно +12.6 +9.0 79 +12 +12 1014.0 985.6
22 19.07 Ю 1 50 км 9/9 2000 м
[]
+11.2 +9.4 89 +11 +11 1014.3 985.8
23 19.07 штиль 0 45 км 5/5 2000 м
[]
+10.1 +9.1 94 +9 +9 1014.6 985.9
00 20.07 ЮВ 1 45 км ясно +8.5 +7.8 95 +8 +8 1014.9 986.0
01 20.07 штиль 0 25 км ясно +7.6 +7.2 97 +7 +7 1015.1 986.2
02 20.07 В 1 50 км ясно +7.8 +7.4 97 +7 +7 1015.0 986.0
03 20.07 штиль 0 45 км ясно +10.5 +9.4 93 +10 +11 1014.5 985.9
04 20.07 ЮВ 2 40 км ясно +14.1 +10.4 78 +14 +15 1014.2 986.0
05 20.07 Ю 2 35 км ясно +15.7 +10.6 72 +16 +19 1014.0 985.9
06 20.07 Ю 2 35 км ясно +18.1 +11.1 64 +19 +24 1013.6 985.8 +6.8 +18.4
07 20.07 Ю 3 45 км ясно +19.3 +10.2 56 +21 +26 комфорт 1013.6 985.8
08 20.07 Ю 3 40 км 1/1 2000 м
[]
+20.0 +9.4 50 +22 +28 комфорт 1013.5 985.8
09 20.07 ЮЗ 4 30 км 1/1 1000 м
[]
+21.6 +9.3 45 +23 +29 комфорт 1013.3 985.7
10 20.07 ЮЗ 4 30 км 1/1 2000 м
[]
+21.8 +9.3 45 +23 +29 комфорт 1013.1 985.6
11 20.07 ЮЗ 2 35 км 3/3 2000 м
[]
+22.6 +9.0 42 +24 +31 комфорт 1013.1 985.6
12 20.07 Ю 4 35 км 3/3 1500 м
[]
+22.8 +10.4 45 +25 +29 комфорт 1013.0 985.6
13 20.07 ЮВ 3 45 км 4/1 1500 м
[]
+23.0 +9.9 43 +25 +30 комфорт 1012.7 985.3
14 20.07 Ю 3 35 км 9/6 1500 м
[]
+22.8 +9.4 42 +24 +26 комфорт 1012.6 985.3
15 20.07 ЮВ 3 35 км 6/6
[]
+22.9 +9.1 41 +24 +26 комфорт 1012.6 985.2
16 20.07 Ю 3 50 км 9/9 2000 м
[]
+22.7 +8.5 40 +24 +24 комфорт 1012.7 985.3
17 20.07 ЮЗ 3 45 км 9/9
[]
+21.2 +11.2 53 +23 +23 комфорт 1013.3 985.8
18 20.07 ЮВ 2 50 км ясно +17.8 +12.1 69 +18 +19 1013.7 985.8 +17.8 +24.2
19 20.07 ЮВ 1 50 км 1/1
[]
+17.8 +11.7 67 +19 +19 1014.0 986.1
20 20.07 ЮВ 1 45 км 3/3
[]
+16.3 +11.8 75 +17 +17 1014.4 986.4
21 20.07 Ю 2 50 км ясно +15.6 +11.4 76 +16 +16 1014.7 986.5
22 20.07 Ю 2 50 км ясно +13.9 +11.7 87 +13 +13 1015.1 986.8
23 20.07 ЮВ 2 45 км ясно +12.8 +11.0 89 +12 +12 1015.4 986.9
00 21.07 штиль 0 35 км ясно +11.9 +11.0 94 +11 +11 1015.5 987.0
01 21.07 штиль 0 11 км ясно +10.6 +10.0 96 +10 +10 1015.6 987.0
02 21.07 ЮВ 1 19 км ясно +9.9 +9.5 97 +9 +10 1015.8 987.1
03 21.07 Ю 2 40 км ясно +14.6 +11.8 83 +14 +15 1015.3 987.0
04 21.07 Ю 2 40 км ясно +15.3 +11.3 77 +15 +17 1015.4 987.2
05 21.07 ЮВ 3 35 км ясно +16.8 +11.9 73 +17 +19 1015.1 987.1
06 21.07 Ю 3 40 км ясно +18.5 +11.2 62 +19 +23 1014.8 986.9 +9.9 +18.6
07 21.07 Ю 3 40 км ясно +19.9 +11.6 59 +22 +27 комфорт 1014.7 987.0
08 21.07 Ю 4 45 км 9/9
[]
+19.4 +11.2 59 +21 +21 комфорт 1014.8 987.0
09 21.07 Ю 4 35 км 6/6
[]
+21.8 +12.7 56 +24 +27 комфорт 1014.3 986.8
10 21.07 Ю 4 35 км 1/1
[]
+22.1 +13.1 57 +25 +31 комфорт 1014.3 986.8
11 21.07 Ю 4 30 км 3/3
[]
+23.3 +12.4 50 +26 +31 жарко 1014.0 986.6
12 21.07 Ю 4 45 км 3/3 1000 м
[]
+22.5 +12.7 54 +25 +30 комфорт 1013.9 986.5
13 21.07 Ю 5 40 км 4/3 1500 м
[]
+24.3 +12.6 48 +26 +29 жарко 1013.5 986.2
14 21.07 Ю 4 40 км 3/3 1500 м
[]
+24.3 +13.4 51 +27 +29 жарко 1013.4 986.1
15 21.07 Ю 4 35 км 9/8 1500 м
[]
+23.2 +13.1 53 +26 +27 жарко 1013.1 985.8
16 21.07 Ю 2 45 км 6/1 1500 м
[]
+22.4 +12.7 54 +25 +27 комфорт 1013.5 986.0
17 21.07 В 2 50 км 8/1 1500 м
[]
+21.0 +13.6 63 +24 +25 комфорт 1013.7 986.1
18 21.07 ЮВ 3 50 км 5/3 2000 м
[]
+21.7 +12.8 57 +24 +24 комфорт 1013.5 985.9 +18.4 +24.9
19 21.07 З 4 14 км дождь 9/9 1000 м
[]
+17.4 +12.5 73 +17 +17 1014.9 986.9
20 21.07 ЮВ 2 35 км в посл. час дождь 10/10 2000 м
[]
+15.6 +14.4 93 +15 +15 1015.1 986.9
21 21.07 В 2 30 км слаб. ливневой дождь 10/10
[]
+15.1 +14.2 94 +15 +15 1015.0 986.8
22 21.07 ЮВ 2 40 км в посл. час дождь 10/10
[]
+15.3 +13.9 91 +15 +15 1014.9 986.7
23 21.07 штиль 0 21 км 10/10
[]
+14.4 +13.8 96 +14 +14 1015.2 987.0
00 22.07 Ю 3 50 км 8/4 2000 м
[]
+15.0 +12.2 83 +14 +14 1015.1 986.9
01 22.07 Ю 2 45 км 3/3
[]
+13.8 +11.4 85 +13 +13 1015.1 986.8
02 22.07 Ю 2 45 км ясно +13.4 +10.8 84 +13 +13 1015.3 987.0
03 22.07 Ю 2 50 км ясно +14.7 +10.9 78 +14 +15 1015.2 987.0
04 22.07 Ю 3 35 км ясно +15.4 +10.9 75 +15 +16 1015.2 987.0
05 22.07 Ю 2 40 км ясно +16.8 +11.8 72 +17 +20 1015.0 987.0
06 22.07 Ю 3 35 км ясно +18.5 +11.8 65 +19 +23 1014.7 986.9 +13.3 +21.7 3
07 22.07 Ю 4 30 км ясно +20.0 +11.7 59 +22 +26 комфорт 1014.5 986.8
08 22.07 Ю 5 35 км ясно +21.6 +9.7 47 +23 +27 комфорт 1014.1 986.6
09 22.07 Ю 4 30 км ясно +23.3 +12.1 49 +26 +32 жарко 1013.9 986.5
10 22.07 Ю 5 35 км ясно +23.7 +11.1 45 +25 +30 комфорт 1014.0 986.6
11 22.07 Ю 6 40 км 1/1 1500 м
[]
+24.0 +11.1 44 +25 +29 комфорт 1014.0 986.7
12 22.07 ЮЗ 5 35 км ясно +25.0 +11.0 41 +26 +31 жарко 1013.5 986.3
13 22.07 Ю 5 40 км 1/1 2000 м
[]
+25.6 +11.2 40 +27 +30 жарко 1013.4 986.2
14 22.07 Ю 5 40 км 1/1 2000 м
[]
+24.8 +10.4 40 +26 +29 жарко 1013.3 986.0
15 22.07 ЮЗ 5 40 км ясно +25.8 +9.5 36 +26 +29 жарко 1012.9 985.8
16 22.07 ЮЗ 4 40 км 4/4 2000 м
[]
+26.1 +9.6 35 +27 +28 жарко 1012.8 985.7
17 22.07 Ю 5 45 км 5/5
[]
+23.7 +11.3 46 +25 +26 комфорт 1013.3 986.0
18 22.07 Ю 2 50 км 8/8
[]
+22.9 +12.0 50 +25 +26 комфорт 1013.3 985.9 +18.5 +26.4
20 22.07 ЮВ 2 50 км ясно +20.9 +11.5 55 +24 +24 комфорт 1013.9 986.3
21 22.07 ЮВ 2 40 км ясно +16.8 +12.5 76 +17 +17 1014.6 986.6
22 22.07 ЮВ 2 45 км ясно +15.2 +12.0 81 +15 +15 1015.0 986.8
23 22.07 ЮВ 2 40 км ясно +13.5 +10.8 84 +13 +13 1015.6 987.2
00 23.07 ЮВ 2 40 км ясно +11.9 +10.5 91 +11 +11 1015.8 987.3
01 23.07 Ю 2 45 км ясно +12.3 +9.8 85 +11 +11 1015.9 987.4
02 23.07 ЮВ 1 40 км ясно +10.9 +9.3 90 +11 +11 1016.3 987.6
03 23.07 ЮВ 1 40 км ясно +13.7 +10.7 82 +14 +15 1015.9 987.5
04 23.07 Ю 1 35 км ясно +17.6 +12.1 70 +19 +21 1015.4 987.5
05 23.07 Ю 3 40 км ясно +20.1 +11.3 57 +22 +25 комфорт 1015.2 987.5
06 23.07 Ю 3 40 км ясно +21.9 +11.8 53 +24 +28 комфорт 1015.2 987.6 +10.3 +23.4
07 23.07 Ю 3 35 км ясно +23.1 +10.8 46 +25 +31 комфорт 1015.1 987.6
08 23.07 Ю 3 30 км ясно +24.1 +10.0 41 +25 +32 комфорт 1015.1 987.8
09 23.07 Ю 3 35 км ясно +24.7 +9.9 39 +26 +33 жарко 1015.1 987.8

 

Местоположение метеостанции Муонио Аламуонио (Финляндия): широта 67.99 долгота 23.68 высота над уровнем моря 236 м.

В архиве по умолчанию представлена погода в Муонио Аламуонио за последнюю неделю. Архивные данные за месяц целиком и за предыдущие месяцы, начиная с января 2011 года, Вы можете получить, выбрав интересующий диапазон дат из раскрывающегося списка и нажав кнопку "Ввод!".


*Определитесь, кто Вы:
робот инопланетянин человек

Внимание! Время в таблицах - всемирное. Для получения местного времени необходимо прибавить поправку, которая равна 1 ч.

Смотрите также архив погоды в соседних городах и на ближайших метеорологических станциях:

Погода в Муонио Лаукукеро (Финляндия) (17 км)
Погода в Муонио Саммалтунтури (Финляндия) (18 км)
Погода в Киттиля Ломполонвуома (Финляндия) (22 км)
Погода в Киттила Кенттарова (Финляндия) (23 км)
Погода в Киттила Маторова (Финляндия) (23 км)
Погода в Паркаломполо (Швеция) (46 км)
Погода в Киттила Левитунтури (Финляндия) (54 км)
Погода в Киттиля (Финляндия) (59 км)
Погода в Киттиля (Финляндия) (64 км)
Погода в Наккала (Финляндия) (68 км)

Пояснения к столбцам:

Ветер - указаны скорость ветра в м/с - средняя за 10 мин, порывы в срок и между сроками (в фигурных скобках) и направление, откуда дует ветер: С - северный, СВ - северо-восточный, В - восточный, ЮВ - юго-восточный, Ю - южный, ЮЗ - юго-западный, З - западный, СЗ - северо-западный.
Видимость - горизонтальная дальность видимости в метрах или километрах. При видимости от 1 до 10 км при отсутствии осадков обычно наблюдается дымка, при ухудшении видимости до 1 км и менее - туман. В сухую погоду видимость может ухудшаться дымом, пылью или мглою.
Явления - указаны атмосферные явления, наблюдавшиеся в срок или в последний час перед сроком; фигурными скобками обозначены явления, наблюдавшиеся между сроками (за 1-3 часа до срока); квадратными скобками обозначены град или гололедные отложения с указанием их диаметра в мм.
Облачность - указаны через наклонную черту общая и нижняя облачность в баллах и высота нижней границы облаков в метрах; квадратными скобками обозначены формы облаков: Ci - перистые, Cs - перисто-слоистые, Cc - перисто-кучевые, Ac - высококучевые, As - высокослоистые, Sc - слоисто-кучевые, Ns - слоисто-дождевые, Cu - кучевые, Cb - кучево-дождевые. Подробнее классификацию облаков см. в Атласе облаков (PDF).
T - Температура воздуха - температура, измеренная на высоте 2 м над землей.
Td - Температура точки росы - температура, при понижении до которой содержащийся в воздухе водяной пар достигнет насыщения.
f - Относительная влажность воздуха - влажноcть воздуха, измеренная на высоте 2 м над землей.
Te - Эффективная температура - температура, которую ощущает одетый по сезону человек в тени. Характеристика душности погоды. При расчете учитывается влияние влажности воздуха и скорости ветра на теплоощущения человека.
Tes - Эффективная температура на солнце - температура, которую ощущает человек, с поправкой на солнечный нагрев. Характеристика знойности погоды. Зависит от высоты солнца над горизонтом, облачности и скорости ветра. Ночью, в пасмурную погоду, а также при ветре 12 м/с и более поправка равна нулю.
P - Атмосферное давление - приведенное к уровню моря атмосферное давление.
Po - Атмосферное давление - измеренное на уровне метеостанции атмосферное давление.
Tmin - Минимальная температура - минимум температуры воздуха на высоте 2 м над землей.
Tmax - Максимальная температура - максимум температуры воздуха на высоте 2 м над землей.
R - Количество осадков - Количество выпавших осадков за период времени, мм. При наведении курсора мыши на число - период времени, за который выпало указанное количество осадков.
R24 - Количество осадков - Количество выпавших осадков за 24 часа, мм.
S - Снежный покров - Высота снежного покрова, см. При наведении курсора мыши на число - состояние снежного покрова и степень покрытия местности в баллах.